Flag for China Weather past 2 weeks in Kunming, Yunnan, China

Now
63 °F

Broken clouds.


Feels Like: 63 °F
Forecast: 53 / 62 °F
Wind: 20 mph from Northeast

Location: Kunming Airport

Current Time: Apr 21, 2015 at 8:18:09 PM

Latest Report: Apr 21, 2015 at 7:00 PM


Visibility: 5 mi

Pressure: 30.07 "Hg

Humidity: 64%

Dew point: 50 °F

Location of KunmingLocation

Historic Weather in Kunming — Graph

°F

Kunming temperature yesterday

Maximum temperature yesterday: 77 °F (at 4:00 PM)
Minimum temperature yesterday: 50 °F (at 6:00 AM)
Average temperature yesterday: 64 °F

Past Weeks' High & Low Weather Summary

 TemperatureHumidityPressure
High82 °F (Apr 17, 2:00 PM)100% (Apr 8, 7:00 AM)30.51 "Hg (Apr 8, 7:00 AM)
Low43 °F (Apr 12, 4:00 AM)14% (Apr 15, 2:00 PM)29.92 "Hg (Apr 17, 3:00 PM)
Average61 °F60%30.17 "Hg
* Reported Apr 6 7:00 PM — Apr 21 7:00 PM, Kunming, Weather by CustomWeather, © 2015

Note: Actual official high and low records may vary slightly from our data, if they occured in-between our weather recording intervals... More about our weather records

Advertising

Kunming weather history for previous 24 hours

 ConditionsComfort  
Time TempWeatherWind HumidityBarometerVisibility
7:00 PM
Tue, Apr 21
63 °FBroken clouds.20 mph64%30.07 "Hg5 mi
6:00 PM66 °FBroken clouds.13 mph56%30.07 "HgN/A
5:00 PM68 °FPassing clouds.13 mph53%30.04 "HgN/A
4:00 PM70 °FScattered clouds.6 mph46%30.07 "HgN/A
3:00 PM72 °FScattered clouds.6 mph41%30.09 "HgN/A
2:00 PM72 °FScattered clouds.10 mph41%30.12 "HgN/A
1:00 PM70 °FScattered clouds.10 mph43%30.15 "HgN/A
12:00 PM68 °FPartly sunny.3 mph49%30.15 "HgN/A
11:00 AM66 °FPassing clouds.6 mph52%30.18 "HgN/A
10:00 AM64 °FPassing clouds.8 mph60%30.18 "HgN/A
9:00 AM61 °FSunny.6 mph63%30.18 "Hg10 mi
8:00 AM61 °FSunny.No wind63%30.15 "Hg10 mi
7:00 AM54 °FSunny.1 mph77%30.12 "Hg10 mi
6:00 AM55 °FClear.8 mph72%30.09 "Hg10 mi
5:00 AM55 °FClear.3 mph72%30.09 "Hg10 mi
4:00 AM55 °FClear.8 mph67%30.09 "Hg10 mi
3:00 AM59 °FClear.10 mph63%30.09 "Hg10 mi
2:00 AM61 °FClear.13 mph59%30.09 "Hg10 mi
1:00 AM61 °FClear.8 mph59%30.12 "Hg10 mi
12:00 AM64 °FClear.17 mph52%30.09 "Hg10 mi
11:00 PM
Mon, Apr 20
64 °FClear.15 mph49%30.09 "Hg10 mi
10:00 PM66 °FClear.15 mph43%30.07 "Hg10 mi
9:00 PM68 °FClear.15 mph35%30.04 "Hg10 mi
8:00 PM72 °FClear.13 mph31%30.04 "Hg10 mi
Weather by CustomWeather, © 2015

See weather overviewHow to use our weather pages